Location: *
(37.5724°S, 58.0067°E)
Time: 09:54:23
(UTC+00:00)

H-2A R/B - Pass Details

Date: 26 September 2020
Orbit: 734 x 836 km, 98.2° (Epoch: 29 October)

Event Time Altitude Azimuth Distance (km) Brightness Sun altitude
Rises 14:41:16 0° 142° (SE) 3,213 4.9 -7.4°
Reaches altitude 10° 14:45:25 10° 109° (ESE) 2,264 3.9 -8.2°
Maximum altitude 14:46:59 11° 90° (E) 2,162 3.7 -8.5°
Enters shadow 14:48:03 11° 77° (ENE) 2,203 3.7 -8.7°
